Location: Unspecified
(0.0000°N, 0.0000°E)
Time: 09:27:18
(UTC+00:00)

Interbol-2 - Visible Passes

Search period start: 05 June 2023 00:00
Search period end: 15 June 2023 00:00
Orbit: 947 x 19025 km, 62.8° (Epoch: 01 June)

Date Brightness Start Highest point End Pass type
(mag) Time Alt. Az. Time Alt. Az. Time Alt. Az.
05 Jun 11.3 00:41:43 10° W 01:15:49 15° NW 05:08:28 10° ENE visible
05 Jun 9.8 17:33:42 10° SE 17:58:03 25° E 19:27:35 10° NE visible
05 Jun 11.0 23:34:04 10° WSW 00:10:40 26° WNW 03:49:08 10° NNE visible
06 Jun 10.0 16:56:39 10° E 17:12:24 12° E 17:39:16 10° ENE visible
06 Jun 10.7 22:35:46 10° WSW 23:09:17 39° WNW 02:09:48 10° N visible
07 Jun 10.4 21:40:33 10° SW 22:10:06 53° WNW 01:03:32 10° N visible
08 Jun 10.2 20:46:53 10° SW 21:12:56 70° WNW 00:00:41 10° NNE visible
09 Jun 10.0 19:54:11 10° SSW 20:17:53 89° WNW 22:57:50 10° NNE visible
10 Jun 10.1 05:37:50 10° NNW 06:43:33 45° NE 06:56:04 10° ESE visible
10 Jun 9.8 19:02:15 10° S 19:24:59 70° E 21:53:37 10° NNE visible
11 Jun 10.7 04:35:48 10° N 05:46:19 31° NE 06:01:28 10° ESE visible
11 Jun 9.7 18:11:09 10° S 18:34:12 51° E 20:46:35 10° NNE visible
12 Jun 11.4 03:28:01 10° N 04:45:58 21° NE 05:04:16 10° E visible
12 Jun 9.7 17:21:19 10° SSE 17:45:21 34° E 19:34:06 10° NNE visible
12 Jun 11.3 23:31:07 10° W 00:07:42 20° WNW 03:59:49 10° NE visible
13 Jun 9.8 16:34:55 10° SE 16:58:23 19° E 18:08:36 10° NE visible
13 Jun 11.0 22:28:58 10° WSW 23:04:28 31° WNW 02:18:28 10° NNE visible
